TFFR

Pointe-a-Pitre Le Raizet

ICAO Code TFFR
IATA Code PTP
Name Pointe-a-Pitre Le Raizet
Location Pointe-a-Pitre Le Raizet, Guadeloupe, GP
Elevation 36 Feet / 11 Meters
Latitude 16.26530075
Longitude -61.53179932
METAR TFFR 240930Z AUTO 00000KT CAVOK 22/21 Q1015
Extra information Display NOTAMS
Display Charts
Runway Length Width Surface Elevation
12 11499 ft 148 ft ASP 5 ft
30 11499 ft 148 ft ASP 32 ft